AP586 Weather Reports


time (UTC)temp
C
wind
direction
speed
KPH
gust
KPH
rain 1hr
cm
rain 24hr
cm
rain mn
cm
humidity
%
barometer
mb
20260507074512 12 290 4.8 16.1 0.03 0.23 0.03 86 1004.1
20260507073008 12 259 1.6 12.9 0.00 0.20 0.00 86 1003.8
20260507071506 12 285 3.2 12.9 0.00 0.20 0.00 86 1003.2
20260507070009 12 294 3.2 19.3 0.00 0.20 0.00 87 1003.3
20260507064504 12 271 1.6 9.7 0.00 0.20 0.00 88 1003.4
20260507063001 13 258 4.8 9.7 0.00 0.20 0.00 89 1003.4
20260507061602 13 288 3.2 8.0 0.00 0.20 0.00 89 1003.2
20260507060103 13 255 0.0 12.9 0.00 0.20 0.00 90 1003.4
20260507054613 13 261 3.2 9.7 0.00 0.20 0.00 91 1003.6
20260507053105 13 283 1.6 12.9 0.00 0.20 0.00 91 1003.7
20260507051557 14 300 0.0 4.8 0.00 0.20 0.00 91 1003.5
20260507050054 15 285 3.2 6.4 0.00 0.20 0.00 92 1003.4
20260507044554 15 245 1.6 6.4 0.00 0.20 0.00 92 1003.6
20260507043044 15 241 0.0 9.7 0.00 0.20 0.00 92 1003.3
20260507041547 15 284 4.8 16.1 0.00 0.20 0.00 92 1003.4
20260507040041 15 263 1.6 12.9 0.00 0.20 0.20 92 1003.6
20260507034538 14 189 6.4 11.3 0.00 0.20 0.20 92 1003.7
20260507033037 14 217 4.8 12.9 0.00 0.20 0.20 92 1003.5
20260507031539 14 234 6.4 16.1 0.00 0.20 0.20 92 1003.2
20260507030033 14 194 6.4 22.5 0.00 0.20 0.20 92 1003.2
20260507024537 14 187 9.7 14.5 0.00 0.20 0.20 92 1003.1
20260507023033 14 247 8.0 17.7 0.00 0.20 0.20 92 1003.0
20260507021536 14 169 8.0 24.1 0.00 0.20 0.20 92 1003.0
20260507020031 13 215 6.4 19.3 0.00 0.20 0.20 92 1003.1
20260507014532 13 240 4.8 17.7 0.00 0.20 0.20 92 1003.2
20260507013031 13 194 6.4 16.1 0.00 0.20 0.20 92 1003.5
20260507011531 13 203 9.7 20.9 0.00 0.20 0.20 92 1003.6
20260507010037 13 175 6.4 19.3 0.00 0.20 0.20 92 1003.7
20260507004528 13 190 8.0 17.7 0.00 0.20 0.20 92 1003.6
20260507003026 13 190 4.8 20.9 0.03 0.20 0.20 92 1003.6
20260507001528 13 215 11.3 30.6 0.03 0.20 0.20 92 1003.5
20260507000026 13 205 6.4 27.4 0.03 0.20 0.20 91 1003.4
20260506234521 13 196 8.0 29.0 0.03 0.20 0.20 91 1003.3
20260506233019 13 144 9.7 22.5 0.00 0.18 0.18 91 1003.2
20260506231519 14 193 11.3 24.1 0.00 0.18 0.18 91 1003.3
20260506230013 14 200 6.4 20.9 0.03 0.18 0.18 91 1003.4
20260506224514 14 192 8.0 19.3 0.03 0.18 0.18 91 1003.4
20260506223008 15 189 9.7 20.9 0.05 0.18 0.18 91 1003.6
20260506221506 15 157 11.3 24.1 0.10 0.18 0.18 90 1003.7
20260506220004 15 160 6.4 22.5 0.10 0.15 0.15 90 1003.8
20260506214603 15 155 8.0 24.1 0.10 0.15 0.15 90 1004.0
20260506213102 15 158 8.0 33.8 0.10 0.13 0.13 89 1004.1
20260506211558 15 168 17.7 40.2 0.05 0.08 0.08 88 1004.0
20260506210057 16 159 6.4 19.3 0.05 0.05 0.05 87 1004.1
20260506204556 16 198 11.3 24.1 0.05 0.05 0.05 85 1004.2
20260506203054 16 121 8.0 32.2 0.03 0.03 0.03 83 1004.2
20260506201553 16 325 9.7 37.0 0.03 0.03 0.03 82 1004.0
20260506200052 17 163 11.3 25.7 0.00 0.00 0.00 78 1004.1
20260506194551 17 215 8.0 22.5 0.00 0.00 0.00 76 1004.3
20260506193054 18 212 12.9 35.4 0.00 0.00 0.00 74 1004.6
20260506191649 18 217 14.5 33.8 0.00 0.00 0.00 70 1004.5
20260506190051 19 217 9.7 29.0 0.00 0.00 0.00 66 1004.3
20260506184548 20 242 16.1 33.8 0.00 0.00 0.00 64 1004.4
20260506183046 20 165 6.4 29.0 0.00 0.00 0.00 64 1004.5
20260506181600 20 174 12.9 38.6 0.00 0.00 0.00 62 1004.7
20260506180043 21 219 16.1 35.4 0.00 0.00 0.00 60 1004.9
20260506174542 21 194 16.1 35.4 0.00 0.00 0.00 61 1005.1
20260506173105 20 165 11.3 46.7 0.00 0.00 0.00 63 1005.2
20260506171543 21 152 17.7 37.0 0.00 0.00 0.00 61 1005.1
20260506170051 20 130 14.5 40.2 0.00 0.00 0.00 64 1005.2
20260506164538 20 171 9.7 33.8 0.00 0.00 0.00 63 1005.5
20260506163045 20 153 17.7 37.0 0.00 0.00 0.00 62 1005.6
20260506161534 20 156 14.5 35.4 0.00 0.00 0.00 63 1006.0
20260506160034 20 96 17.7 43.5 0.00 0.00 0.00 63 1006.2
20260506154530 21 194 16.1 32.2 0.00 0.00 0.00 61 1006.4
20260506153028 21 173 14.5 32.2 0.00 0.00 0.00 60 1006.5
20260506151527 21 242 17.7 32.2 0.00 0.00 0.00 61 1006.6
20260506150025 21 171 11.3 35.4 0.00 0.00 0.00 62 1006.7
20260506144524 20 237 12.9 30.6 0.00 0.00 0.00 63 1006.7
20260506143026 20 171 9.7 24.1 0.00 0.00 0.00 65 1006.5
20260506141517 20 187 11.3 37.0 0.00 0.00 0.00 66 1006.5
20260506140019 19 180 17.7 37.0 0.00 0.00 0.00 67 1006.6
20260506134511 18 139 8.0 25.7 0.00 0.00 0.00 71 1006.6
20260506133008 18 115 11.3 37.0 0.00 0.00 0.00 71 1007.2
20260506131509 18 198 12.9 45.1 0.00 0.00 0.00 72 1007.1
20260506130004 17 178 12.9 32.2 0.00 0.00 0.00 75 1007.2
20260506124503 17 187 9.7 24.1 0.00 0.00 0.00 77 1007.3
20260506123058 16 162 17.7 33.8 0.00 0.00 0.00 80 1007.4
20260506121555 16 179 11.3 25.7 0.00 0.00 0.00 81 1007.3
20260506120055 15 185 11.3 32.2 0.00 0.00 0.00 82 1007.7
20260506114603 15 192 9.7 19.3 0.00 0.00 0.00 82 1007.8
20260506113051 15 259 12.9 22.5 0.00 0.00 0.00 83 1008.0
20260506111549 15 187 8.0 24.1 0.00 0.00 0.00 83 1007.8
20260506110048 15 155 8.0 20.9 0.00 0.00 0.00 83 1007.7
20260506104609 15 151 6.4 30.6 0.00 0.00 0.00 83 1007.8
20260506103044 15 205 4.8 24.1 0.00 0.00 0.00 83 1007.9
20260506101548 15 221 8.0 20.9 0.00 0.00 0.00 83 1007.6
20260506100044 15 198 4.8 17.7 0.00 0.00 0.00 83 1007.6
20260506094539 15 263 8.0 17.7 0.00 0.00 0.00 83 1007.5
20260506093036 15 242 9.7 24.1 0.00 0.00 0.00 82 1007.5
20260506091534 15 186 9.7 25.7 0.00 0.00 0.00 81 1007.4
20260506090042 15 205 11.3 25.7 0.00 0.00 0.00 81 1007.5
20260506084533 15 221 9.7 25.7 0.00 0.00 0.00 80 1007.5
20260506083037 15 202 6.4 24.1 0.00 0.00 0.00 80 1007.6
20260506081525 15 251 16.1 24.1 0.00 0.00 0.00 79 1007.5